Home > Weather > Kokkola > Past weeks

Flag for Finland Past Weather in Kokkola, Finland — Yesterday and Last 2 Weeks

Now
73 °F

Passing clouds.


Feels Like: 77 °F
Forecast: 49 / 67 °F
Wind: 7 mph from North

Location: Kruunupyy

Current Time: May 31, 2016 at 3:06:38 PM

Latest Report: May 31, 2016 at 1:50 PM


Visibility: N/A

Pressure: 30.24 "Hg

Humidity: 36%

Dew Point: 45 °F

Location of KokkolaLocation

Past Weather in Kokkola — Graph

°F

Kokkola Temperature Yesterday

Maximum temperature yesterday: 72 °F (at 1:50 PM)
Minimum temperature yesterday: 46 °F (at 1:50 AM)
Average temperature yesterday: 60 °F

High & Low Weather Summary for the Past Weeks

 TemperatureHumidityPressure
High77 °F (May 23, 4:50 PM)100% (May 17, 9:20 AM)30.36 "Hg (May 17, 9:20 AM)
Low32 °F (May 18, 3:20 AM)33% (May 21, 12:50 PM)29.59 "Hg (May 17, 8:50 AM)
Average54 °F75%30.01 "Hg
* Reported May 16 1:20 PM — May 31 1:20 PM, Kokkola, Weather by CustomWeather, © 2016

Note: Actual official high and low records may vary slightly from our data, if they occured in-between our weather recording intervals... More about our weather records

Advertising

Kokkola Weather History for the Previous 24 Hours

Scroll right to see more
 ConditionsComfort  
Time TempWeatherWind HumidityBarometerVisibility
1:20 PM
Tue, May 31
73 °FPassing clouds.7 mph41%30.24 "HgN/A
12:50 PM73 °FPassing clouds.6 mph38%30.24 "HgN/A
12:20 PM72 °FPassing clouds.6 mph44%30.24 "HgN/A
11:50 AM73 °FPassing clouds.7 mph41%30.24 "HgN/A
11:20 AM72 °FPassing clouds.6 mph44%30.24 "HgN/A
10:50 AM70 °FPassing clouds.5 mph46%30.24 "HgN/A
10:20 AM68 °FPassing clouds.6 mph53%30.24 "HgN/A
9:50 AM66 °FPassing clouds.5 mph56%30.24 "HgN/A
9:20 AM64 °FPassing clouds.7 mph60%30.24 "HgN/A
8:50 AM63 °FPassing clouds.6 mph64%30.24 "HgN/A
8:20 AM63 °FPassing clouds.7 mph64%30.24 "HgN/A
7:50 AM61 °FPassing clouds.6 mph68%30.24 "HgN/A
7:20 AM59 °FSunny.6 mph72%30.24 "Hg10 mi
6:50 AM57 °FSunny.3 mph77%30.24 "Hg10 mi
6:20 AM55 °FSunny.3 mph82%30.24 "Hg10 mi
5:50 AM52 °FSunny.1 mph94%30.24 "Hg10 mi
5:20 AM50 °FSunny.No wind94%30.24 "Hg10 mi
12:50 AM54 °FClear.2 mph82%30.21 "Hg10 mi
12:20 AM54 °FClear.2 mph82%30.21 "Hg10 mi
11:50 PM
Mon, May 30
54 °FSunny.2 mph82%30.21 "Hg10 mi
11:20 PM55 °FSunny.2 mph82%30.21 "Hg10 mi
10:50 PM57 °FSunny.3 mph72%30.21 "Hg10 mi
10:20 PM61 °FSunny.3 mph68%30.21 "Hg10 mi
9:50 PM61 °FPassing clouds.6 mph68%30.21 "HgN/A
9:20 PM63 °FPassing clouds.7 mph64%30.21 "HgN/A
8:50 PM64 °FSunny.7 mph60%30.21 "Hg10 mi
8:20 PM66 °FPassing clouds.8 mph52%30.21 "HgN/A
7:50 PM66 °FPassing clouds.9 mph52%30.21 "HgN/A
7:20 PM68 °FPassing clouds.10 mph49%30.21 "HgN/A
6:50 PM70 °FPassing clouds.9 mph46%30.21 "HgN/A
6:20 PM70 °FPassing clouds.10 mph50%30.21 "HgN/A
5:50 PM72 °FPassing clouds.9 mph50%30.21 "HgN/A
5:20 PM72 °FPassing clouds.10 mph50%30.21 "HgN/A
4:50 PM70 °FPassing clouds.9 mph53%30.21 "HgN/A
4:20 PM70 °FPassing clouds.10 mph53%30.21 "HgN/A
3:50 PM72 °FPassing clouds.10 mph50%30.24 "HgN/A
3:20 PM72 °FPassing clouds.10 mph50%30.24 "HgN/A
Weather by CustomWeather, © 2016

See weather overviewHow to use our weather pages